DW5595 Weather Reports


Display with metric or nautical units.
time (UTC)temp
F
wind
direction
speed
MPH
gust
MPH
rain 1hr
in
rain 24hr
in
rain mn
in
humidity
%
barometer
mb
20260904060032 73 171 0.0 0.0 0.00 0.00 0.00 95 1017.6
20260904054530 73 171 0.0 0.0 0.00 0.00 0.00 95 1017.5
20260904053027 73 171 0.0 0.0 0.00 0.00 0.00 94 1017.7
20260904051525 73 171 0.0 0.0 0.00 0.00 0.00 94 1017.7
20260904050033 73 171 0.0 0.0 0.00 0.00 0.00 94 1017.8
20260904044536 74 261 0.0 0.0 0.00 0.00 0.00 94 1017.9
20260904043030 74 261 0.0 0.0 0.00 0.00 0.00 94 1017.9
20260904041533 74 261 0.0 0.0 0.00 0.00 0.00 94 1017.9
20260904040031 74 261 0.0 0.0 0.00 0.00 0.00 93 1017.8
20260904034535 75 261 0.0 0.0 0.00 0.00 0.00 93 1018.0
20260904033030 75 261 0.0 0.0 0.00 0.00 0.00 93 1018.0
20260904031533 75 261 0.0 0.0 0.00 0.00 0.00 92 1017.9
20260904030034 76 261 0.0 0.0 0.00 0.00 0.00 92 1018.0
20260904024534 76 261 0.0 0.0 0.00 0.00 0.00 92 1018.0
20260904023028 76 261 0.0 0.0 0.00 0.00 0.00 90 1018.2
20260904021533 77 159 0.0 0.0 0.00 0.00 0.00 91 1018.4
20260904020026 77 159 0.0 0.0 0.00 0.00 0.00 90 1018.2
20260904014557 77 159 0.0 0.0 0.00 0.00 0.00 89 1018.0
20260904013019 78 159 0.0 0.0 0.00 0.00 0.00 88 1017.7
20260904011533 78 159 0.0 0.0 0.00 0.00 0.00 86 1017.5
20260904010012 79 159 0.0 0.0 0.00 0.00 0.00 86 1017.4
20260904004508 80 159 0.0 0.0 0.00 0.00 0.00 84 1017.2
20260904003009 81 159 0.0 0.0 0.00 0.00 0.00 83 1016.8
20260904001534 82 159 0.0 0.0 0.00 0.00 0.00 80 1016.6
20260904000026 83 159 0.0 0.0 0.00 0.00 0.00 75 1016.4
20260903234518 85 159 0.0 0.0 0.00 0.00 0.00 74 1016.3
20260903233015 86 159 0.0 0.0 0.00 0.00 0.00 72 1016.2
20260903231512 87 159 0.0 0.0 0.00 0.00 0.00 67 1016.2
20260903230018 88 159 0.0 0.0 0.00 0.00 0.00 64 1016.1
20260903224532 89 143 0.0 2.0 0.00 0.00 0.00 61 1016.1
20260903223033 90 170 0.0 2.0 0.00 0.00 0.00 57 1016.1
20260903221528 91 159 1.0 3.0 0.00 0.00 0.00 56 1016.1
20260903220040 91 195 2.0 3.0 0.00 0.00 0.00 56 1016.1
20260903214534 92 130 1.0 4.0 0.00 0.00 0.00 57 1016.3
20260903213036 92 160 2.0 3.0 0.00 0.00 0.00 56 1016.2
20260903211512 91 161 0.0 0.0 0.00 0.00 0.00 55 1016.4
20260903210033 91 346 0.0 2.0 0.00 0.00 0.00 59 1016.4
20260903204530 92 202 0.0 4.0 0.00 0.00 0.00 53 1016.6
20260903203025 93 143 2.0 7.0 0.00 0.00 0.00 54 1016.7
20260903201536 93 148 2.0 4.0 0.00 0.00 0.00 51 1016.8
20260903200018 93 153 0.0 7.0 0.00 0.00 0.00 52 1017.0
20260903194534 94 145 1.0 3.0 0.00 0.00 0.00 53 1017.1
20260903193035 94 5 0.0 3.0 0.00 0.00 0.00 51 1017.4
20260903191533 94 111 1.0 2.0 0.00 0.00 0.00 52 1017.4
20260903190031 95 15 1.0 3.0 0.00 0.00 0.00 50 1017.5
20260903184528 94 266 0.0 6.0 0.00 0.00 0.00 51 1017.7
20260903183026 95 167 0.0 4.0 0.00 0.00 0.00 54 1017.9
20260903181531 94 11 1.0 3.0 0.00 0.00 0.00 49 1018.0
20260903180041 94 169 0.0 4.0 0.00 0.00 0.00 51 1018.3
20260903174517 93 86 1.0 3.0 0.00 0.00 0.00 54 1018.2
20260903173036 93 336 0.0 5.0 0.00 0.00 0.00 57 1018.3
20260903171530 93 160 0.0 3.0 0.00 0.00 0.00 59 1018.6
20260903170006 92 231 0.0 2.0 0.00 0.00 0.00 57 1018.8
20260903164533 91 239 0.0 2.0 0.00 0.00 0.00 58 1019.0
20260903163032 91 159 0.0 3.0 0.00 0.00 0.00 60 1019.2
20260903161527 91 171 0.0 2.0 0.00 0.00 0.00 62 1019.1
20260903160016 90 142 0.0 2.0 0.00 0.00 0.00 64 1019.3
20260903154513 90 20 3.0 4.0 0.00 0.00 0.00 67 1019.4
20260903153031 88 171 1.0 2.0 0.00 0.00 0.00 72 1019.4
20260903151543 87 330 0.0 2.0 0.00 0.00 0.00 73 1019.5
20260903150041 85 11 1.0 3.0 0.00 0.00 0.00 76 1019.5
20260903143023 83 348 1.0 3.0 0.00 0.00 0.00 78 1019.4
20260903141522 81 352 1.0 4.0 0.00 0.00 0.00 80 1019.4
20260903140011 79 352 0.0 0.0 0.00 0.00 0.00 83 1019.3
20260903134540 78 22 1.0 3.0 0.00 0.00 0.00 87 1019.2
20260903133031 76 42 0.0 4.0 0.00 0.00 0.00 90 1019.2
20260903131533 75 19 1.0 3.0 0.00 0.00 0.00 93 1019.3
20260903130030 74 128 0.0 0.0 0.00 0.00 0.00 95 1019.4
20260903124523 73 119 0.0 0.0 0.00 0.00 0.00 97 1019.5
20260903123030 72 119 0.0 0.0 0.00 0.00 0.00 97 1019.4
20260903121511 71 62 0.0 0.0 0.00 0.00 0.00 97 1019.5
20260903120017 70 170 0.0 0.0 0.00 0.00 0.00 97 1019.4
20260903114558 69 158 0.0 0.0 0.00 0.00 0.00 96 1019.2
20260903113031 69 158 0.0 0.0 0.00 0.00 0.00 96 1018.8
20260903111528 69 158 0.0 0.0 0.00 0.00 0.00 96 1018.6
20260903110025 69 158 0.0 0.0 0.00 0.00 0.00 96 1018.6
20260903104523 69 158 0.0 0.0 0.00 0.00 0.00 96 1018.5
20260903103020 69 158 0.0 0.0 0.00 0.00 0.00 96 1018.4
20260903101516 69 158 0.0 0.0 0.00 0.00 0.00 96 1018.4
20260903100035 69 158 0.0 0.0 0.00 0.00 0.00 96 1018.3
20260903094539 70 158 0.0 0.0 0.00 0.00 0.00 96 1018.1
20260903093050 70 158 0.0 0.0 0.00 0.00 0.00 96 1018.1
20260903091527 70 158 0.0 0.0 0.00 0.00 0.00 96 1018.0
20260903090028 70 158 0.0 0.0 0.00 0.00 0.00 95 1017.9
20260903084529 70 158 0.0 0.0 0.00 0.00 0.00 95 1018.0
20260903083032 70 158 0.0 0.0 0.00 0.00 0.00 96 1017.9
20260903081539 70 158 0.0 0.0 0.00 0.00 0.00 95 1017.9
20260903080035 70 158 0.0 0.0 0.00 0.00 0.00 95 1018.0
20260903074530 71 158 0.0 0.0 0.00 0.00 0.00 95 1017.9
20260903073029 71 158 0.0 0.0 0.00 0.00 0.00 95 1017.9
20260903071527 71 158 0.0 0.0 0.00 0.00 0.00 95 1017.7
20260903070028 71 158 0.0 0.0 0.00 0.00 0.00 95 1017.9
20260903064519 71 158 0.0 0.0 0.00 0.00 0.00 95 1017.6
20260903063015 71 158 0.0 0.0 0.00 0.00 0.00 95 1017.7
20260903061512 72 158 0.0 0.0 0.00 0.00 0.00 95 1017.6